ATV501 EDDS-LEPP

Flight info

Callsign ATV501
Flight time 2h 4m
Altitude 18000
Route ROTWE5B ROTWE Y126 LUPEN V17 OBORN/N0316F190 R11 EPL G21 LMG R10 BTZ R299 DONOS M299 PPN
Aircraft DH8D/M-SDGIRWY/S

Departure

Time 2026-05-06 11:54
Airport Stuttgart Airport (EDDS)

Arrival

Time 2026-05-06 13:59
Airport Pamplona Airport (LEPP)
Time Latitude Longitude Altitude Speed Heading
2026-05-06 11:19 48.68808 9.19746 1284 ft 0 kts 164°
2026-05-06 11:47 48.68777 9.19760 1284 ft 9 kts 164°
2026-05-06 11:48 48.68762 9.19852 1284 ft 8 kts 67°
2026-05-06 11:48 48.68800 9.19941 1284 ft 14 kts 54°
2026-05-06 11:48 48.68844 9.20062 1284 ft 10 kts 68°
2026-05-06 11:48 48.68875 9.20214 1284 ft 20 kts 74°
2026-05-06 11:49 48.68920 9.20456 1284 ft 28 kts 74°
2026-05-06 11:49 48.68980 9.20777 1284 ft 35 kts 74°
2026-05-06 11:49 48.69048 9.21139 1284 ft 35 kts 75°
2026-05-06 11:49 48.69113 9.21483 1284 ft 29 kts 73°
2026-05-06 11:50 48.69158 9.21719 1284 ft 19 kts 74°
2026-05-06 11:50 48.69187 9.21874 1284 ft 13 kts 73°
2026-05-06 11:50 48.69224 9.22061 1284 ft 23 kts 74°
2026-05-06 11:50 48.69273 9.22323 1284 ft 23 kts 73°
2026-05-06 11:51 48.69310 9.22519 1284 ft 19 kts 74°
2026-05-06 11:51 48.69353 9.22746 1284 ft 26 kts 74°
2026-05-06 11:51 48.69402 9.23010 1284 ft 22 kts 75°
2026-05-06 11:51 48.69377 9.23143 1284 ft 10 kts 143°
2026-05-06 11:52 48.69336 9.23170 1284 ft 1 kts 171°
2026-05-06 11:52 48.69327 9.23173 1284 ft 3 kts 168°
2026-05-06 11:52 48.69322 9.23174 1284 ft 2 kts 168°
2026-05-06 11:52 48.69293 9.23185 1284 ft 1 kts 166°
2026-05-06 11:53 48.69251 9.23203 1284 ft 11 kts 163°
2026-05-06 11:53 48.69188 9.23209 1284 ft 7 kts 218°
2026-05-06 11:53 48.69167 9.23147 1284 ft 15 kts 250°
2026-05-06 11:53 48.69078 9.22668 1284 ft 80 kts 254°
2026-05-06 11:54 48.68875 9.21597 1285 ft 136 kts 255°
2026-05-06 11:54 48.68587 9.20139 1725 ft 137 kts 251°
2026-05-06 11:54 48.68235 9.18823 2466 ft 126 kts 245°
2026-05-06 11:54 48.67889 9.17496 2930 ft 137 kts 251°
2026-05-06 11:55 48.67598 9.16021 3355 ft 150 kts 253°
2026-05-06 11:55 48.67295 9.14391 3698 ft 165 kts 253°
2026-05-06 11:55 48.66968 9.12618 4071 ft 177 kts 253°
2026-05-06 11:55 48.66625 9.10758 4645 ft 182 kts 253°
2026-05-06 11:56 48.66270 9.08831 5123 ft 195 kts 253°
2026-05-06 11:56 48.65888 9.06772 5521 ft 210 kts 253°
2026-05-06 11:56 48.65621 9.05330 5800 ft 218 kts 253°
2026-05-06 11:56 48.65203 9.03078 6222 ft 227 kts 253°
2026-05-06 11:57 48.64769 9.00736 6689 ft 233 kts 253°
2026-05-06 11:57 48.64330 8.98357 7161 ft 237 kts 253°
2026-05-06 11:57 48.63879 8.95912 7636 ft 240 kts 253°
2026-05-06 11:57 48.63435 8.93501 8091 ft 242 kts 253°
2026-05-06 11:58 48.62980 8.91038 8547 ft 243 kts 253°
2026-05-06 11:58 48.62525 8.88571 8988 ft 244 kts 253°
2026-05-06 11:58 48.62025 8.86122 9407 ft 245 kts 246°
2026-05-06 11:58 48.61169 8.83885 9831 ft 246 kts 232°
2026-05-06 11:59 48.60078 8.81901 10253 ft 246 kts 227°
2026-05-06 11:59 48.58945 8.79976 10662 ft 246 kts 227°
2026-05-06 11:59 48.57796 8.78057 11049 ft 246 kts 226°
2026-05-06 11:59 48.56642 8.76149 11433 ft 247 kts 226°
2026-05-06 12:00 48.55481 8.74238 11788 ft 247 kts 226°
2026-05-06 12:00 48.54322 8.72334 12144 ft 248 kts 226°
2026-05-06 12:00 48.53137 8.70388 12481 ft 249 kts 225°
2026-05-06 12:00 48.52058 8.68492 12778 ft 251 kts 232°
2026-05-06 12:01 48.51246 8.66145 13079 ft 254 kts 246°
2026-05-06 12:01 48.50683 8.63582 13393 ft 256 kts 250°
2026-05-06 12:01 48.50178 8.61009 13679 ft 258 kts 250°
2026-05-06 12:01 48.49682 8.58390 13970 ft 260 kts 251°
2026-05-06 12:02 48.49196 8.55757 14260 ft 261 kts 251°
2026-05-06 12:02 48.48714 8.53125 14545 ft 263 kts 251°
2026-05-06 12:02 48.48231 8.50479 14817 ft 264 kts 251°
2026-05-06 12:02 48.47738 8.47789 15091 ft 266 kts 251°
2026-05-06 12:03 48.47247 8.45111 15358 ft 268 kts 251°
2026-05-06 12:03 48.46768 8.42503 15613 ft 269 kts 251°
2026-05-06 12:03 48.46266 8.39776 15875 ft 270 kts 251°
2026-05-06 12:03 48.45777 8.37144 16122 ft 271 kts 251°
2026-05-06 12:04 48.45266 8.34413 16363 ft 273 kts 251°
2026-05-06 12:04 48.44746 8.31647 16610 ft 274 kts 251°
2026-05-06 12:04 48.44236 8.28935 16841 ft 275 kts 251°
2026-05-06 12:04 48.43713 8.26156 17077 ft 276 kts 251°
2026-05-06 12:05 48.43187 8.23365 17303 ft 278 kts 251°
2026-05-06 12:05 48.42659 8.20565 17529 ft 279 kts 251°
2026-05-06 12:05 48.42151 8.17881 17675 ft 282 kts 251°
2026-05-06 12:05 48.41600 8.14983 17745 ft 289 kts 251°
2026-05-06 12:06 48.41032 8.12012 17784 ft 296 kts 251°
2026-05-06 12:06 48.40459 8.09021 17797 ft 303 kts 251°
2026-05-06 12:06 48.39873 8.05950 17802 ft 309 kts 251°
2026-05-06 12:06 48.39317 8.02796 17795 ft 316 kts 257°
2026-05-06 12:07 48.39325 7.99470 17804 ft 324 kts 276°
2026-05-06 12:07 48.39820 7.96133 17806 ft 329 kts 282°
2026-05-06 12:07 48.40385 7.92769 17805 ft 333 kts 282°
2026-05-06 12:07 48.40940 7.89383 17804 ft 335 kts 281°
2026-05-06 12:08 48.41501 7.85909 17819 ft 338 kts 281°
2026-05-06 12:08 48.42052 7.82477 17948 ft 336 kts 281°
2026-05-06 12:08 48.42599 7.79063 18073 ft 334 kts 281°
2026-05-06 12:08 48.43138 7.75686 18198 ft 333 kts 281°
2026-05-06 12:09 48.43604 7.72282 18324 ft 331 kts 276°
2026-05-06 12:09 48.43846 7.68853 18448 ft 329 kts 272°
2026-05-06 12:09 48.44008 7.65415 18574 ft 328 kts 271°
2026-05-06 12:09 48.44151 7.62003 18685 ft 328 kts 271°
2026-05-06 12:10 48.44298 7.58559 18749 ft 329 kts 271°
2026-05-06 12:10 48.44456 7.55109 18782 ft 331 kts 271°
2026-05-06 12:10 48.44629 7.51604 18795 ft 333 kts 272°
2026-05-06 12:10 48.44805 7.48166 18799 ft 335 kts 272°
2026-05-06 12:11 48.44985 7.44641 18801 ft 337 kts 272°
2026-05-06 12:11 48.45165 7.41100 18802 ft 339 kts 272°
2026-05-06 12:11 48.45342 7.37559 18802 ft 340 kts 272°
2026-05-06 12:11 48.45518 7.34000 18802 ft 341 kts 272°
2026-05-06 12:12 48.45694 7.30431 18803 ft 342 kts 272°
2026-05-06 12:12 48.45868 7.26847 18804 ft 343 kts 272°
2026-05-06 12:12 48.46042 7.23263 18804 ft 343 kts 272°
2026-05-06 12:12 48.46111 7.19674 18804 ft 343 kts 265°
2026-05-06 12:13 48.45823 7.16117 18806 ft 341 kts 258°
2026-05-06 12:13 48.45356 7.12560 18806 ft 341 kts 256°
2026-05-06 12:13 48.44878 7.09053 18807 ft 342 kts 256°
2026-05-06 12:13 48.44413 7.05541 18809 ft 342 kts 257°
2026-05-06 12:14 48.43965 7.02031 18810 ft 342 kts 257°
2026-05-06 12:14 48.43526 6.98499 18810 ft 342 kts 257°
2026-05-06 12:14 48.43090 6.94936 18811 ft 343 kts 257°
2026-05-06 12:14 48.42659 6.91408 18811 ft 343 kts 257°
2026-05-06 12:15 48.42223 6.87860 18812 ft 343 kts 257°
2026-05-06 12:15 48.41778 6.84257 18813 ft 343 kts 257°
2026-05-06 12:15 48.41343 6.80768 18814 ft 343 kts 257°
2026-05-06 12:15 48.40907 6.77287 18815 ft 343 kts 257°
2026-05-06 12:16 48.40459 6.73725 18816 ft 343 kts 257°
2026-05-06 12:16 48.40018 6.70235 18818 ft 343 kts 257°
2026-05-06 12:16 48.39566 6.66659 18819 ft 343 kts 257°
2026-05-06 12:16 48.39122 6.63134 18821 ft 343 kts 257°
2026-05-06 12:17 48.38988 6.62070 18819 ft 338 kts 257°
2026-05-06 12:17 48.38540 6.58533 18822 ft 339 kts 257°
2026-05-06 12:17 48.38098 6.55024 18823 ft 340 kts 257°
2026-05-06 12:17 48.37655 6.51514 18824 ft 340 kts 257°
2026-05-06 12:18 48.37361 6.49195 18824 ft 341 kts 257°
2026-05-06 12:18 48.36766 6.44526 18825 ft 342 kts 257°
2026-05-06 12:18 48.36470 6.42200 18826 ft 342 kts 257°
2026-05-06 12:18 48.36017 6.38649 18829 ft 342 kts 257°
2026-05-06 12:19 48.35566 6.35126 18830 ft 342 kts 257°
2026-05-06 12:19 48.35113 6.31589 18830 ft 343 kts 257°
2026-05-06 12:19 48.34659 6.28056 18830 ft 343 kts 257°
2026-05-06 12:19 48.34204 6.24534 18830 ft 343 kts 257°
2026-05-06 12:20 48.33749 6.21007 18830 ft 343 kts 257°
2026-05-06 12:20 48.33286 6.17435 18830 ft 344 kts 257°
2026-05-06 12:20 48.32829 6.13930 18830 ft 344 kts 257°
2026-05-06 12:20 48.32366 6.10392 18830 ft 344 kts 257°
2026-05-06 12:21 48.31786 6.06902 18828 ft 343 kts 249°
2026-05-06 12:21 48.30697 6.03652 18830 ft 342 kts 236°
2026-05-06 12:21 48.29312 6.00756 18830 ft 342 kts 231°
2026-05-06 12:21 48.27859 5.97913 18830 ft 343 kts 231°
2026-05-06 12:22 48.26409 5.95091 18830 ft 344 kts 230°
2026-05-06 12:22 48.24998 5.92342 18831 ft 344 kts 231°
2026-05-06 12:22 48.23519 5.89445 18833 ft 345 kts 231°
2026-05-06 12:22 48.22076 5.86599 18835 ft 345 kts 231°
2026-05-06 12:23 48.20623 5.83721 18836 ft 346 kts 231°
2026-05-06 12:23 48.19156 5.80810 18838 ft 346 kts 231°
2026-05-06 12:23 48.17719 5.77964 18840 ft 346 kts 231°
2026-05-06 12:23 48.16268 5.75092 18842 ft 347 kts 231°
2026-05-06 12:24 48.14794 5.72179 18843 ft 347 kts 231°
2026-05-06 12:24 48.13325 5.69281 18845 ft 347 kts 231°
2026-05-06 12:24 48.11873 5.66422 18847 ft 347 kts 231°
2026-05-06 12:24 48.10376 5.63475 18848 ft 347 kts 231°
2026-05-06 12:25 48.08911 5.60596 18849 ft 347 kts 231°
2026-05-06 12:25 48.07437 5.57703 18851 ft 348 kts 231°
2026-05-06 12:25 48.05979 5.54843 18852 ft 348 kts 231°
2026-05-06 12:25 48.04496 5.51937 18853 ft 348 kts 231°
2026-05-06 12:26 48.03022 5.49052 18854 ft 348 kts 231°
2026-05-06 12:26 48.01535 5.46145 18854 ft 348 kts 231°
2026-05-06 12:26 48.00132 5.43403 18852 ft 348 kts 231°
2026-05-06 12:26 47.98651 5.40514 18849 ft 348 kts 231°
2026-05-06 12:27 47.97171 5.37629 18849 ft 348 kts 231°
2026-05-06 12:27 47.95681 5.34727 18850 ft 348 kts 231°
2026-05-06 12:27 47.94212 5.31868 18851 ft 348 kts 231°
2026-05-06 12:27 47.92740 5.29010 18859 ft 348 kts 231°
2026-05-06 12:28 47.91269 5.26156 18867 ft 347 kts 230°
2026-05-06 12:28 47.89670 5.23390 18870 ft 346 kts 224°
2026-05-06 12:28 47.87928 5.20932 18872 ft 346 kts 220°
2026-05-06 12:28 47.86135 5.18540 18872 ft 346 kts 220°
2026-05-06 12:29 47.84327 5.16128 18872 ft 346 kts 220°
2026-05-06 12:29 47.82538 5.13704 18871 ft 347 kts 221°
2026-05-06 12:29 47.80764 5.11267 18871 ft 347 kts 221°
2026-05-06 12:29 47.78982 5.08801 18870 ft 347 kts 221°
2026-05-06 12:30 47.77225 5.06363 18870 ft 347 kts 221°
2026-05-06 12:30 47.76037 5.04716 18869 ft 347 kts 221°
2026-05-06 12:30 47.73688 5.01469 18867 ft 347 kts 221°
2026-05-06 12:30 47.72505 4.99838 18866 ft 347 kts 221°
2026-05-06 12:31 47.70734 4.97400 18865 ft 347 kts 221°
2026-05-06 12:31 47.68945 4.94939 18865 ft 347 kts 221°
2026-05-06 12:31 47.67117 4.92431 18864 ft 347 kts 221°
2026-05-06 12:31 47.65340 4.89994 18864 ft 347 kts 221°
2026-05-06 12:32 47.63547 4.87539 18863 ft 347 kts 221°
2026-05-06 12:32 47.61779 4.85120 18863 ft 347 kts 221°
2026-05-06 12:32 47.60007 4.82697 18862 ft 347 kts 221°
2026-05-06 12:32 47.58243 4.80287 18862 ft 347 kts 221°
2026-05-06 12:33 47.56462 4.77857 18862 ft 347 kts 221°
2026-05-06 12:33 47.54671 4.75416 18862 ft 347 kts 221°
2026-05-06 12:33 47.52896 4.72994 18862 ft 347 kts 221°
2026-05-06 12:33 47.51122 4.70572 18862 ft 347 kts 221°
2026-05-06 12:34 47.49346 4.68149 18862 ft 347 kts 221°
2026-05-06 12:34 47.47575 4.65736 18862 ft 347 kts 221°
2026-05-06 12:34 47.45778 4.63288 18862 ft 347 kts 221°
2026-05-06 12:34 47.44004 4.60872 18862 ft 347 kts 221°
2026-05-06 12:35 47.42226 4.58452 18862 ft 347 kts 221°
2026-05-06 12:35 47.40453 4.56044 18862 ft 347 kts 221°
2026-05-06 12:35 47.38673 4.53631 18862 ft 347 kts 221°
2026-05-06 12:35 47.36899 4.51231 18862 ft 347 kts 221°
2026-05-06 12:36 47.35092 4.48789 18863 ft 347 kts 221°
2026-05-06 12:36 47.33314 4.46388 18863 ft 347 kts 221°
2026-05-06 12:36 47.31508 4.43953 18863 ft 347 kts 221°
2026-05-06 12:36 47.29738 4.41570 18863 ft 347 kts 221°
2026-05-06 12:37 47.27947 4.39158 18864 ft 347 kts 221°
2026-05-06 12:37 47.26168 4.36764 18864 ft 347 kts 221°
2026-05-06 12:37 47.24395 4.34378 18867 ft 347 kts 221°
2026-05-06 12:37 47.22602 4.31969 18869 ft 347 kts 221°
2026-05-06 12:38 47.20821 4.29578 18870 ft 347 kts 221°
2026-05-06 12:38 47.19017 4.27159 18870 ft 347 kts 221°
2026-05-06 12:38 47.17236 4.24773 18871 ft 347 kts 221°
2026-05-06 12:38 47.15452 4.22386 18872 ft 347 kts 221°
2026-05-06 12:39 47.13660 4.19991 18872 ft 348 kts 221°
2026-05-06 12:39 47.11873 4.17606 18873 ft 348 kts 221°
2026-05-06 12:39 47.10057 4.15184 18873 ft 348 kts 221°
2026-05-06 12:39 47.08270 4.12804 18874 ft 348 kts 221°
2026-05-06 12:40 47.06465 4.10401 18874 ft 348 kts 221°
2026-05-06 12:40 47.04659 4.07998 18875 ft 348 kts 221°
2026-05-06 12:40 47.02886 4.05640 18876 ft 348 kts 221°
2026-05-06 12:40 47.01071 4.03227 18876 ft 348 kts 221°
2026-05-06 12:41 46.99274 4.00841 18878 ft 348 kts 221°
2026-05-06 12:41 46.97473 3.98452 18883 ft 348 kts 221°
2026-05-06 12:41 46.95677 3.96078 18885 ft 349 kts 221°
2026-05-06 12:41 46.93852 3.93672 18887 ft 349 kts 221°
2026-05-06 12:42 46.92048 3.91288 18888 ft 349 kts 221°
2026-05-06 12:42 46.90253 3.88911 18889 ft 350 kts 221°
2026-05-06 12:42 46.88441 3.86511 18889 ft 350 kts 221°
2026-05-06 12:42 46.86613 3.84092 18890 ft 350 kts 221°
2026-05-06 12:43 46.84808 3.81710 18890 ft 350 kts 221°
2026-05-06 12:43 46.82999 3.79327 18890 ft 351 kts 221°
2026-05-06 12:43 46.81163 3.76913 18890 ft 351 kts 221°
2026-05-06 12:43 46.79344 3.74522 18891 ft 351 kts 221°
2026-05-06 12:44 46.77532 3.72144 18891 ft 351 kts 221°
2026-05-06 12:44 46.75721 3.69769 18891 ft 351 kts 221°
2026-05-06 12:44 46.73902 3.67386 18891 ft 351 kts 221°
2026-05-06 12:44 46.72090 3.65005 18890 ft 351 kts 222°
2026-05-06 12:45 46.70480 3.62335 18889 ft 352 kts 234°
2026-05-06 12:45 46.69268 3.59229 18893 ft 352 kts 243°
2026-05-06 12:45 46.67582 3.53840 18892 ft 352 kts 245°
2026-05-06 12:46 46.66573 3.50614 18892 ft 352 kts 244°
2026-05-06 12:46 46.65527 3.47347 18892 ft 352 kts 244°
2026-05-06 12:46 46.64486 3.44160 18893 ft 352 kts 244°
2026-05-06 12:46 46.63426 3.40941 18893 ft 352 kts 244°
2026-05-06 12:47 46.62353 3.37689 18893 ft 352 kts 244°
2026-05-06 12:47 46.61298 3.34481 18894 ft 352 kts 244°
2026-05-06 12:47 46.60228 3.31227 18896 ft 352 kts 244°
2026-05-06 12:47 46.59175 3.28027 18896 ft 352 kts 244°
2026-05-06 12:48 46.58114 3.24819 18896 ft 352 kts 244°
2026-05-06 12:48 46.57059 3.21601 18896 ft 352 kts 244°
2026-05-06 12:48 46.56000 3.18390 18896 ft 352 kts 244°
2026-05-06 12:48 46.54937 3.15183 18896 ft 352 kts 244°
2026-05-06 12:49 46.53857 3.11935 18897 ft 352 kts 244°
2026-05-06 12:49 46.52786 3.08717 18897 ft 353 kts 244°
2026-05-06 12:49 46.51720 3.05512 18899 ft 353 kts 244°
2026-05-06 12:49 46.50652 3.02298 18900 ft 353 kts 244°
2026-05-06 12:50 46.49569 2.99046 18900 ft 353 kts 244°
2026-05-06 12:50 46.48502 2.95850 18900 ft 353 kts 244°
2026-05-06 12:50 46.47434 2.92661 18900 ft 353 kts 244°
2026-05-06 12:50 46.46573 2.90088 18900 ft 351 kts 244°
2026-05-06 12:51 46.45912 2.88122 18900 ft 349 kts 244°
2026-05-06 12:51 46.44849 2.84955 18901 ft 349 kts 244°
2026-05-06 12:51 46.43768 2.81731 18901 ft 350 kts 244°
2026-05-06 12:51 46.42703 2.78558 18901 ft 351 kts 244°
2026-05-06 12:52 46.41630 2.75368 18901 ft 352 kts 244°
2026-05-06 12:52 46.40543 2.72143 18901 ft 352 kts 244°
2026-05-06 12:52 46.39460 2.68934 18902 ft 353 kts 244°
2026-05-06 12:52 46.38391 2.65766 18902 ft 353 kts 244°
2026-05-06 12:53 46.37300 2.62542 18902 ft 353 kts 244°
2026-05-06 12:53 46.36226 2.59379 18902 ft 354 kts 244°
2026-05-06 12:53 46.35132 2.56153 18902 ft 354 kts 244°
2026-05-06 12:53 46.34084 2.53060 18903 ft 354 kts 244°
2026-05-06 12:54 46.33002 2.49863 18903 ft 354 kts 244°
2026-05-06 12:54 46.31914 2.46659 18903 ft 354 kts 244°
2026-05-06 12:54 46.30811 2.43419 18904 ft 355 kts 244°
2026-05-06 12:54 46.29719 2.40213 18904 ft 355 kts 244°
2026-05-06 12:55 46.28643 2.37056 18904 ft 355 kts 244°
2026-05-06 12:55 46.27517 2.33756 18904 ft 355 kts 244°
2026-05-06 12:55 46.26482 2.30726 18904 ft 356 kts 244°
2026-05-06 12:55 46.25376 2.27492 18905 ft 356 kts 244°
2026-05-06 12:56 46.24288 2.24315 18905 ft 356 kts 244°
2026-05-06 12:56 46.23178 2.21077 18905 ft 356 kts 244°
2026-05-06 12:56 46.22076 2.17870 18905 ft 356 kts 244°
2026-05-06 12:56 46.20960 2.14626 18905 ft 356 kts 244°
2026-05-06 12:57 46.19860 2.11440 18906 ft 356 kts 244°
2026-05-06 12:57 46.18750 2.08231 18906 ft 356 kts 244°
2026-05-06 12:57 46.17630 2.04993 18906 ft 356 kts 244°
2026-05-06 12:57 46.16525 2.01792 18906 ft 356 kts 244°
2026-05-06 12:58 46.15423 1.98599 18906 ft 356 kts 244°
2026-05-06 12:58 46.14315 1.95389 18907 ft 357 kts 244°
2026-05-06 12:58 46.13568 1.93230 18907 ft 357 kts 244°
2026-05-06 12:58 46.12459 1.90029 18907 ft 357 kts 244°
2026-05-06 12:59 46.11349 1.86825 18907 ft 357 kts 244°
2026-05-06 12:59 46.10228 1.83590 18909 ft 357 kts 244°
2026-05-06 12:59 46.09109 1.80367 18912 ft 357 kts 244°
2026-05-06 12:59 46.08001 1.77187 18913 ft 357 kts 244°
2026-05-06 13:00 46.06886 1.73992 18913 ft 357 kts 244°
2026-05-06 13:00 46.05757 1.70762 18914 ft 357 kts 244°
2026-05-06 13:00 46.04639 1.67569 18914 ft 357 kts 244°
2026-05-06 13:00 46.03520 1.64379 18914 ft 357 kts 244°
2026-05-06 13:01 46.02389 1.61155 18913 ft 357 kts 244°
2026-05-06 13:01 46.01267 1.57968 18913 ft 357 kts 244°
2026-05-06 13:01 46.00127 1.54733 18913 ft 357 kts 244°
2026-05-06 13:01 45.99006 1.51552 18913 ft 357 kts 244°
2026-05-06 13:02 45.97887 1.48368 18913 ft 357 kts 244°
2026-05-06 13:02 45.96771 1.45202 18913 ft 357 kts 244°
2026-05-06 13:02 45.95633 1.41981 18913 ft 357 kts 244°
2026-05-06 13:02 45.94513 1.38818 18912 ft 357 kts 244°
2026-05-06 13:03 45.93370 1.35595 18912 ft 356 kts 244°
2026-05-06 13:03 45.92242 1.32424 18912 ft 356 kts 244°
2026-05-06 13:03 45.91116 1.29259 18912 ft 356 kts 244°
2026-05-06 13:03 45.89976 1.26052 18912 ft 356 kts 244°
2026-05-06 13:04 45.88852 1.22890 18912 ft 356 kts 244°
2026-05-06 13:04 45.87710 1.19679 18912 ft 356 kts 244°
2026-05-06 13:04 45.86586 1.16523 18912 ft 356 kts 244°
2026-05-06 13:04 45.85457 1.13357 18912 ft 355 kts 244°
2026-05-06 13:05 45.84335 1.10216 18912 ft 355 kts 244°
2026-05-06 13:05 45.83192 1.07022 18912 ft 355 kts 244°
2026-05-06 13:05 45.81999 1.03913 18910 ft 356 kts 238°
2026-05-06 13:05 45.80392 1.01213 18912 ft 358 kts 224°
2026-05-06 13:06 45.78448 0.98994 18913 ft 358 kts 217°
2026-05-06 13:06 45.76404 0.96927 18912 ft 359 kts 216°
2026-05-06 13:06 45.74345 0.94857 18912 ft 359 kts 216°
2026-05-06 13:06 45.72300 0.92765 18912 ft 359 kts 217°
2026-05-06 13:07 45.70282 0.90659 18913 ft 359 kts 217°
2026-05-06 13:07 45.68252 0.88515 18912 ft 359 kts 217°
2026-05-06 13:07 45.66246 0.86387 18912 ft 359 kts 217°
2026-05-06 13:07 45.64219 0.84240 18912 ft 359 kts 217°
2026-05-06 13:08 45.62208 0.82119 18912 ft 359 kts 217°
2026-05-06 13:08 45.60286 0.80098 18913 ft 359 kts 217°
2026-05-06 13:08 45.58274 0.77989 18913 ft 359 kts 217°
2026-05-06 13:08 45.56200 0.75819 18913 ft 359 kts 217°
2026-05-06 13:09 45.54217 0.73746 18914 ft 359 kts 217°
2026-05-06 13:09 45.52171 0.71609 18914 ft 359 kts 217°
2026-05-06 13:09 45.50157 0.69508 18914 ft 359 kts 217°
2026-05-06 13:09 45.48146 0.67411 18914 ft 359 kts 217°
2026-05-06 13:10 45.46128 0.65306 18914 ft 359 kts 217°
2026-05-06 13:10 45.44110 0.63200 18914 ft 359 kts 217°
2026-05-06 13:10 45.42070 0.61070 18914 ft 359 kts 217°
2026-05-06 13:10 45.40053 0.58965 18914 ft 359 kts 217°
2026-05-06 13:11 45.38040 0.56867 18915 ft 359 kts 217°
2026-05-06 13:11 45.36707 0.55478 18915 ft 359 kts 217°
2026-05-06 13:11 45.34658 0.53347 18915 ft 359 kts 217°
2026-05-06 13:11 45.32646 0.51256 18915 ft 359 kts 217°
2026-05-06 13:12 45.30628 0.49162 18914 ft 359 kts 217°
2026-05-06 13:12 45.28616 0.47075 18913 ft 359 kts 217°
2026-05-06 13:12 45.26566 0.44949 18913 ft 359 kts 217°
2026-05-06 13:12 45.24550 0.42860 18913 ft 359 kts 217°
2026-05-06 13:13 45.22535 0.40775 18913 ft 359 kts 217°
2026-05-06 13:13 45.20494 0.38665 18915 ft 359 kts 217°
2026-05-06 13:13 45.18473 0.36578 18921 ft 359 kts 217°
2026-05-06 13:13 45.16458 0.34500 18922 ft 359 kts 217°
2026-05-06 13:14 45.14413 0.32394 18921 ft 358 kts 217°
2026-05-06 13:14 45.12394 0.30316 18921 ft 358 kts 217°
2026-05-06 13:14 45.10394 0.28260 18922 ft 357 kts 217°
2026-05-06 13:14 45.08389 0.26201 18923 ft 356 kts 217°
2026-05-06 13:15 45.06441 0.24205 18924 ft 355 kts 217°
2026-05-06 13:15 45.04443 0.22161 18925 ft 354 kts 217°
2026-05-06 13:15 45.02435 0.20106 18926 ft 353 kts 217°
2026-05-06 13:15 45.00448 0.18071 18927 ft 351 kts 217°
2026-05-06 13:16 44.98483 0.16057 18928 ft 350 kts 217°
2026-05-06 13:16 44.96515 0.14041 18929 ft 349 kts 217°
2026-05-06 13:16 44.94525 0.12005 18929 ft 347 kts 217°
2026-05-06 13:16 44.92578 0.10018 18930 ft 346 kts 217°
2026-05-06 13:17 44.90637 0.08038 18930 ft 345 kts 217°
2026-05-06 13:17 44.88670 0.06033 18931 ft 343 kts 217°
2026-05-06 13:17 44.86767 0.04095 18931 ft 342 kts 217°
2026-05-06 13:17 44.84843 0.02132 18931 ft 341 kts 217°
2026-05-06 13:18 44.82904 0.00156 18931 ft 340 kts 217°
2026-05-06 13:18 44.80993 -0.01784 18932 ft 339 kts 218°
2026-05-06 13:18 44.79085 -0.03695 18935 ft 338 kts 218°
2026-05-06 13:18 44.77184 -0.05602 18960 ft 339 kts 218°
2026-05-06 13:19 44.75250 -0.07571 18954 ft 341 kts 219°
2026-05-06 13:19 44.73291 -0.09580 18953 ft 344 kts 219°
2026-05-06 13:19 44.71351 -0.11568 18946 ft 347 kts 219°
2026-05-06 13:19 44.69382 -0.13577 18944 ft 349 kts 218°
2026-05-06 13:20 44.67452 -0.15538 18943 ft 350 kts 219°
2026-05-06 13:20 44.65458 -0.17643 18943 ft 351 kts 220°
2026-05-06 13:20 44.63555 -0.19772 18942 ft 352 kts 222°
2026-05-06 13:20 44.61679 -0.21954 18944 ft 353 kts 223°
2026-05-06 13:21 44.59724 -0.24260 18942 ft 353 kts 223°
2026-05-06 13:21 44.57882 -0.26417 18943 ft 353 kts 222°
2026-05-06 13:21 44.55975 -0.28613 18944 ft 354 kts 222°
2026-05-06 13:21 44.54060 -0.30788 18944 ft 355 kts 221°
2026-05-06 13:22 44.52137 -0.32959 18944 ft 355 kts 221°
2026-05-06 13:22 44.50210 -0.35131 18945 ft 356 kts 221°
2026-05-06 13:22 44.48274 -0.37312 18945 ft 356 kts 221°
2026-05-06 13:22 44.46349 -0.39483 18945 ft 356 kts 221°
2026-05-06 13:23 44.44392 -0.41690 18946 ft 357 kts 221°
2026-05-06 13:23 44.42458 -0.43868 18946 ft 357 kts 221°
2026-05-06 13:23 44.40539 -0.46029 18949 ft 357 kts 221°
2026-05-06 13:23 44.38591 -0.48221 18952 ft 357 kts 221°
2026-05-06 13:24 44.37280 -0.49694 18953 ft 358 kts 221°
2026-05-06 13:24 44.35344 -0.51868 18954 ft 358 kts 221°
2026-05-06 13:24 44.33399 -0.54050 18956 ft 358 kts 221°
2026-05-06 13:24 44.31457 -0.56226 18957 ft 358 kts 221°
2026-05-06 13:25 44.29493 -0.58424 18959 ft 358 kts 221°
2026-05-06 13:25 44.27549 -0.60595 18960 ft 358 kts 221°
2026-05-06 13:25 44.25607 -0.62761 18961 ft 358 kts 221°
2026-05-06 13:25 44.23737 -0.64848 18965 ft 358 kts 221°
2026-05-06 13:26 44.22835 -0.65854 18969 ft 354 kts 221°
2026-05-06 13:26 44.20918 -0.67995 18968 ft 354 kts 221°
2026-05-06 13:26 44.18994 -0.70157 18969 ft 355 kts 222°
2026-05-06 13:26 44.17067 -0.72378 18968 ft 355 kts 223°
2026-05-06 13:27 44.15175 -0.74602 18968 ft 356 kts 223°
2026-05-06 13:27 44.13293 -0.76830 18968 ft 356 kts 223°
2026-05-06 13:27 44.11378 -0.79089 18968 ft 356 kts 223°
2026-05-06 13:27 44.09451 -0.81349 18969 ft 357 kts 223°
2026-05-06 13:28 44.07558 -0.83557 18969 ft 357 kts 223°
2026-05-06 13:28 44.05624 -0.85800 18970 ft 357 kts 223°
2026-05-06 13:28 44.03697 -0.88031 18970 ft 357 kts 223°
2026-05-06 13:28 44.01777 -0.90254 18971 ft 357 kts 223°
2026-05-06 13:29 43.99839 -0.92499 18972 ft 357 kts 223°
2026-05-06 13:29 43.97938 -0.94706 18974 ft 357 kts 223°
2026-05-06 13:29 43.96031 -0.96920 18975 ft 357 kts 223°
2026-05-06 13:29 43.94119 -0.99137 18976 ft 357 kts 223°
2026-05-06 13:30 43.92187 -1.01367 18977 ft 356 kts 223°
2026-05-06 13:30 43.90243 -1.03537 18980 ft 356 kts 221°
2026-05-06 13:30 43.88948 -1.04923 18981 ft 357 kts 220°
2026-05-06 13:31 43.82284 -1.11766 18990 ft 356 kts 220°
2026-05-06 13:31 43.80294 -1.13834 18991 ft 356 kts 220°
2026-05-06 13:31 43.78340 -1.15882 18992 ft 356 kts 220°
2026-05-06 13:32 43.76341 -1.17987 18834 ft 360 kts 220°
2026-05-06 13:32 43.74228 -1.20218 18650 ft 365 kts 221°
2026-05-06 13:32 43.72283 -1.22325 18457 ft 365 kts 222°
2026-05-06 13:32 43.70284 -1.24561 18243 ft 358 kts 223°
2026-05-06 13:33 43.68417 -1.26688 18014 ft 352 kts 223°
2026-05-06 13:33 43.66544 -1.28830 17767 ft 348 kts 223°
2026-05-06 13:33 43.64759 -1.30860 17528 ft 344 kts 223°
2026-05-06 13:33 43.62920 -1.32934 17281 ft 341 kts 223°
2026-05-06 13:34 43.61094 -1.34983 17136 ft 336 kts 223°
2026-05-06 13:34 43.59260 -1.37030 17068 ft 334 kts 223°
2026-05-06 13:34 43.57458 -1.39036 17032 ft 331 kts 223°
2026-05-06 13:34 43.55679 -1.41013 17029 ft 329 kts 222°
2026-05-06 13:35 43.54469 -1.42360 17026 ft 332 kts 222°
2026-05-06 13:35 43.52647 -1.44396 17021 ft 336 kts 222°
2026-05-06 13:35 43.50822 -1.46430 17020 ft 339 kts 222°
2026-05-06 13:35 43.48965 -1.48455 17019 ft 343 kts 219°
2026-05-06 13:36 43.46816 -1.50045 17019 ft 351 kts 202°
2026-05-06 13:36 43.45840 -1.50420 17014 ft 350 kts 194°
2026-05-06 13:36 43.43434 -1.50743 17032 ft 356 kts 183°
2026-05-06 13:36 43.40897 -1.50579 17025 ft 360 kts 178°
2026-05-06 13:37 43.38406 -1.50285 17023 ft 362 kts 177°
2026-05-06 13:37 43.37430 -1.50162 17019 ft 357 kts 177°
2026-05-06 13:37 43.35477 -1.49915 17028 ft 358 kts 177°
2026-05-06 13:40 43.33363 -1.49658 17026 ft 353 kts 178°
2026-05-06 13:40 43.30918 -1.49385 17023 ft 355 kts 178°
2026-05-06 13:40 43.28460 -1.49129 16824 ft 360 kts 178°
2026-05-06 13:41 43.25947 -1.48831 16360 ft 362 kts 176°
2026-05-06 13:41 43.24805 -1.48658 16154 ft 362 kts 175°
2026-05-06 13:41 43.22316 -1.48227 15708 ft 359 kts 174°
2026-05-06 13:41 43.19859 -1.47736 15263 ft 356 kts 173°
2026-05-06 13:42 43.17395 -1.47220 14817 ft 353 kts 173°
2026-05-06 13:42 43.14953 -1.46726 14374 ft 351 kts 174°
2026-05-06 13:42 43.12554 -1.46270 13939 ft 349 kts 174°
2026-05-06 13:42 43.10178 -1.45841 13508 ft 347 kts 175°
2026-05-06 13:43 43.08920 -1.45622 13286 ft 345 kts 175°
2026-05-06 13:43 43.08787 -1.45601 13266 ft 343 kts 175°
2026-05-06 13:43 43.07604 -1.45506 13083 ft 338 kts 182°
2026-05-06 13:44 43.05316 -1.45964 12687 ft 332 kts 198°
2026-05-06 13:44 43.03243 -1.47104 12279 ft 328 kts 208°
2026-05-06 13:44 43.01216 -1.48592 11855 ft 327 kts 212°
2026-05-06 13:44 42.99259 -1.50115 11443 ft 326 kts 212°
2026-05-06 13:45 42.97336 -1.51638 11035 ft 313 kts 212°
2026-05-06 13:45 42.94818 -1.53630 10491 ft 300 kts 212°
2026-05-06 13:45 42.93067 -1.54998 10116 ft 284 kts 212°
2026-05-06 13:46 42.91366 -1.56320 9757 ft 278 kts 212°
2026-05-06 13:46 42.89696 -1.57618 9406 ft 275 kts 212°
2026-05-06 13:46 42.88049 -1.58897 9060 ft 271 kts 212°
2026-05-06 13:46 42.86403 -1.60173 8717 ft 265 kts 212°
2026-05-06 13:47 42.84822 -1.61396 8385 ft 261 kts 212°
2026-05-06 13:47 42.83259 -1.62603 8058 ft 257 kts 211°
2026-05-06 13:47 42.81715 -1.63792 7735 ft 254 kts 211°
2026-05-06 13:47 42.80205 -1.64952 7417 ft 247 kts 211°
2026-05-06 13:48 42.78727 -1.66086 7105 ft 238 kts 211°
2026-05-06 13:48 42.77328 -1.67162 6810 ft 227 kts 211°
2026-05-06 13:48 42.76001 -1.68182 6531 ft 218 kts 211°
2026-05-06 13:48 42.74677 -1.69202 6259 ft 217 kts 211°
2026-05-06 13:49 42.73419 -1.70177 6093 ft 209 kts 212°
2026-05-06 13:49 42.72230 -1.71153 6081 ft 200 kts 214°
2026-05-06 13:49 42.71071 -1.72164 6026 ft 197 kts 215°
2026-05-06 13:49 42.69952 -1.73176 6002 ft 193 kts 216°
2026-05-06 13:50 42.68878 -1.74278 5976 ft 188 kts 225°
2026-05-06 13:50 42.68011 -1.75599 5849 ft 191 kts 234°
2026-05-06 13:50 42.67211 -1.77043 5727 ft 193 kts 235°
2026-05-06 13:50 42.66423 -1.78510 5605 ft 195 kts 236°
2026-05-06 13:51 42.65520 -1.79888 5477 ft 198 kts 219°
2026-05-06 13:51 42.64594 -1.80570 5386 ft 200 kts 201°
2026-05-06 13:51 42.63965 -1.80830 5326 ft 201 kts 195°
2026-05-06 13:51 42.62590 -1.81190 5193 ft 201 kts 189°
2026-05-06 13:52 42.61254 -1.81427 5058 ft 189 kts 187°
2026-05-06 13:52 42.59991 -1.81331 4889 ft 180 kts 159°
2026-05-06 13:52 42.59083 -1.80244 4712 ft 175 kts 116°
2026-05-06 13:52 42.58864 -1.78671 4594 ft 168 kts 85°
2026-05-06 13:53 42.59188 -1.77159 4546 ft 171 kts 59°
2026-05-06 13:53 42.59909 -1.75827 4514 ft 178 kts 46°
2026-05-06 13:53 42.60750 -1.74692 4472 ft 165 kts 40°
2026-05-06 13:53 42.61574 -1.73696 4472 ft 156 kts 38°
2026-05-06 13:54 42.62403 -1.72759 4477 ft 151 kts 36°
2026-05-06 13:54 42.63208 -1.71905 4477 ft 147 kts 34°
2026-05-06 13:54 42.64029 -1.71081 4338 ft 143 kts 33°
2026-05-06 13:54 42.64806 -1.70336 4077 ft 137 kts 32°
2026-05-06 13:55 42.65584 -1.69609 3825 ft 135 kts 31°
2026-05-06 13:55 42.66353 -1.68920 3572 ft 134 kts 30°
2026-05-06 13:55 42.67142 -1.68239 3334 ft 136 kts 31°
2026-05-06 13:55 42.67938 -1.67527 3170 ft 134 kts 32°
2026-05-06 13:56 42.68643 -1.66757 2933 ft 131 kts 37°
2026-05-06 13:56 42.69290 -1.65839 2767 ft 133 kts 47°
2026-05-06 13:56 42.69883 -1.64897 2668 ft 131 kts 45°
2026-05-06 13:56 42.70514 -1.64022 2595 ft 127 kts 41°
2026-05-06 13:57 42.71203 -1.63201 2608 ft 133 kts 33°
2026-05-06 13:57 42.72001 -1.62650 2555 ft 129 kts 15°
2026-05-06 13:57 42.72885 -1.62483 2413 ft 128 kts 357°
2026-05-06 13:57 42.73481 -1.62577 2288 ft 130 kts 347°
2026-05-06 13:58 42.74358 -1.62915 2056 ft 134 kts 338°
2026-05-06 13:58 42.75203 -1.63394 1812 ft 127 kts 334°
2026-05-06 13:58 42.75990 -1.63926 1637 ft 128 kts 333°
2026-05-06 13:58 42.76759 -1.64455 1513 ft 111 kts 332°
2026-05-06 13:59 42.77218 -1.64789 1512 ft 29 kts 338°
2026-05-06 13:59 42.77297 -1.64831 1512 ft 1 kts 271°
2026-05-06 13:59 42.77259 -1.64821 1512 ft 14 kts 142°
2026-05-06 14:00 42.77156 -1.64743 1512 ft 19 kts 152°
2026-05-06 14:00 42.77007 -1.64628 1512 ft 29 kts 150°
2026-05-06 14:00 42.76807 -1.64490 1512 ft 37 kts 149°
2026-05-06 14:00 42.76596 -1.64335 1512 ft 26 kts 151°
2026-05-06 14:01 42.76587 -1.64328 1512 ft 17 kts 151°
2026-05-06 14:01 42.76581 -1.64324 1512 ft 5 kts 151°
2026-05-06 14:01 42.76523 -1.64268 1512 ft 14 kts 132°
2026-05-06 14:01 42.76523 -1.64142 1512 ft 15 kts 58°
2026-05-06 14:02 42.76612 -1.64107 1512 ft 11 kts 334°
2026-05-06 14:02 42.76684 -1.64111 1512 ft 11 kts 349°
2026-05-06 14:02 42.76757 -1.64156 1512 ft 13 kts 333°
2026-05-06 14:02 42.76784 -1.64162 1512 ft 1 kts 71°
2026-05-06 14:03 42.76786 -1.64155 1512 ft 0 kts 75°
2026-05-06 14:03 42.76792 -1.64130 1512 ft 2 kts 60°
2026-05-06 14:03 42.76803 -1.64126 1512 ft 2 kts 340°
2026-05-06 14:03 42.76806 -1.64129 1512 ft 3 kts 332°
2026-05-06 14:04 42.76810 -1.64129 1512 ft 0 kts 352°